Tracking 25195 objects as of 19-Jan-2022
HD Live streaming from Space Station
objects crossing your sky now

KAISTSAT 4

Track KAISTSAT 4 now!
10-day predictions
KAISTSAT 4 is classified as:


NORAD ID: 27945
Int'l Code: 2003-042G
Perigee: 675.7 km
Apogee: 692.8 km
Inclination: 98.2 °
Period: 98.3 minutes
Semi major axis: 7055 km
RCS: 0.503 m2 (medium)
Launch date: September 27, 2003
Source: South Korea (SKOR)
Launch site: PLESETSK MISSILE AND SPACE COMPLEX (PKMTR)

Turkey's first earth observation satellite; part of international Disaster Monitoring Constellation (DMC).
aabbcc
Your satellite tracking list
Your tracking list is empty




NASA's NSSDC Master Catalog

Two Line Element Set (TLE):
1 27945U 03042G   22019.35497092  .00000205  00000-0  47276-4 0  9996
2 27945  98.1680 152.8923 0012098   2.8989 357.2282 14.64986040978585
Source of the keplerian elements: AFSPC